{"data":{"norad_id":58061,"intl_designator":"2023-158L","name":"STARLINK-30579","alt_names":[],"object_type":"PAYLOAD","status":"ACTIVE","operator":null,"country":"US","launch_date":"2023-10-13","launch_site_code":"AFETR","launch_vehicle":null,"mission":null,"orbit_class":"UNKNOWN","rcs_meters":null,"size_class":null,"mass_kg":null,"dimensions":null,"purposes":["comms"],"wikipedia_slug":null,"has_3d_model":false,"image_url":null,"decayed_at":null,"tle_current":{"epoch":"2026-09-20T12:39:44.029152Z","epoch_age_seconds":135313,"freshness":"FRESH","line1":"1 58061U 23158L   26263.52759293 -.00000504  00000+0 -87887-5 0  9993","line2":"2 58061  43.0047 340.9065 0001404 259.9748 100.0946 15.27571929163660","mean_motion":15.27571929,"eccentricity":0.0001404,"inclination_deg":43.0047,"raan_deg":340.9065,"arg_perigee_deg":259.9748,"mean_anomaly_deg":100.0946,"bstar":-8.7887e-6,"rev_number":16366,"period_min":94.267246776567,"perigee_km":482.10994970258,"apogee_km":484.0365775446,"semimajor_km":6861.2102636236,"source":"CELESTRAK","updated_at":"2026-09-21T09:00:33.778967Z"}}}